Torna al catalogo

FENGYUN 1C DEB

LostSSO
NORAD 38134·DEBRIS·🇨🇳 China

Lanciato May 10, 1999 da Taiyuan Satellite Launch Center

Loading…

Prossimi Passaggi (prossime 24 ore)

TLE

ObsoletoSource: Space-Track

Epoca: Apr 8, 2024, 06:26 UTC

1 38134U 99025EQF 24099.26833655  .00008434  00000-0  36984-2 0  9997
2 38134  98.4500 116.6379 0107439 350.5466   9.3688 14.20811544741560

Traccia FENGYUN 1C DEB in tempo reale con AllMySat

Download on the App Store